Lamezia Terme, Italy

6:47 AM CEST on August 24, 2016 (GMT +0200)
Terme

Weather History for LICA - October, 2012

Change the Weather History Date:

Tuesday, October 23, 2012

  Actual Average Record
Temperature  
Mean Temperature 66 °F -  
Max Temperature 77 °F 65 °F 78 °F (1999)
Min Temperature 55 °F 50 °F 46 °F (2007)
Cooling Degree Days 1    
Growing Degree Days 16 (Base 50)    
Moisture  
Dew Point 56 °F    
Average Humidity 76    
Maximum Humidity 94    
Minimum Humidity 50    
Precipitation  
Precipitation 0.00 in - - ()
Sea Level Pressure  
Sea Level Pressure 30.02 in    
Wind  
Wind Speed 5 mph ()    
Max Wind Speed 10 mph    
Max Gust Speed -    
Visibility 6.2 miles    
Events      
Averages and records for this station are not official NWS values.
T = Trace of Precipitation, MM = Missing Value Source: Averaged Metar Reports

Daily Weather History Graph

Daily Weather History Graph

Search for Another Location

Airport or City:

Trip Planner

Search our weather history database for the weather conditions in past years. The results will help you decide how hot, cold, wet, or windy it might be!

Date:

Astronomy

Oct. 23, 2012 Rise Set
Actual Time 7:12 AM CEST 6:05 PM CEST
Civil Twilight 6:45 AM CEST 6:32 PM CEST
Nautical Twilight 6:14 AM CEST 7:03 PM CEST
Astronomical Twilight 5:43 AM CEST 7:34 PM CEST
Moon 2:35 PM CEST (10/23) 12:49 AM CEST (10/23)
Length of Visible Light 11h 46m
Length of Day
10h 52m
Waxing Gibbous, 64% of the Moon is Illuminated
Oct 23
Waxing Gibbous
Oct 29
Full
Nov 7
Last Quarter
Nov 13
New
Nov 20
First Quarter

Hourly Weather History & Observations

Time (CEST) Temp. Dew Point Humidity Pressure Visibility Wind Dir Wind Speed Gust Speed Precip Events Conditions
12:50 AM 57.2 °F 53.6 °F 88% 30.04 in - East 5.8 mph - N/A   Clear
1:50 AM 57.2 °F 55.4 °F 94% 30.04 in 6.2 mi ENE 6.9 mph - N/A   Partly Cloudy
2:50 AM 57.2 °F 53.6 °F 88% 30.04 in 6.2 mi East 4.6 mph - N/A   Scattered Clouds
3:50 AM 57.2 °F 51.8 °F 82% 30.01 in 6.2 mi ENE 5.8 mph - N/A   Partly Cloudy
4:50 AM 55.4 °F 51.8 °F 88% 30.01 in 6.2 mi East 4.6 mph - N/A   Scattered Clouds
5:50 AM 57.2 °F 51.8 °F 82% 30.01 in 6.2 mi Variable 3.5 mph - N/A   Scattered Clouds
6:50 AM 55.4 °F 51.8 °F 88% 30.01 in 6.2 mi ENE 6.9 mph - N/A   Partly Cloudy
7:50 AM 57.2 °F 53.6 °F 88% 30.01 in - East 8.1 mph - N/A   Clear
8:50 AM 60.8 °F 57.2 °F 88% 30.04 in - East 5.8 mph - N/A   Clear
9:50 AM 66.2 °F 60.8 °F 83% 30.04 in - East 5.8 mph - N/A   Clear
10:50 AM 73.4 °F 64.4 °F 73% 30.04 in - Variable 3.5 mph - N/A   Clear
11:50 AM 77.0 °F 57.2 °F 50% 30.01 in - Variable 3.5 mph - N/A   Clear
12:50 PM 77.0 °F 59.0 °F 54% 30.01 in - WSW 4.6 mph - N/A   Clear
1:50 PM 75.2 °F 60.8 °F 61% 30.01 in 6.2 mi West 9.2 mph - N/A   Partly Cloudy
2:50 PM 73.4 °F 60.8 °F 65% 30.01 in 6.2 mi WNW 10.4 mph - N/A   Partly Cloudy
3:50 PM 73.4 °F 55.4 °F 53% 30.01 in - West 8.1 mph - N/A   Clear
4:50 PM 73.4 °F 59.0 °F 61% 29.98 in - West 5.8 mph - N/A   Clear
5:50 PM 71.6 °F 57.2 °F 60% 29.98 in 6.2 mi Variable 2.3 mph - N/A   Partly Cloudy
6:50 PM 66.2 °F 55.4 °F 68% 30.01 in - Variable 2.3 mph - N/A   Clear
7:50 PM 62.6 °F 53.6 °F 72% 30.01 in - East 5.8 mph - N/A   Clear
8:50 PM 62.6 °F 55.4 °F 77% 30.01 in - Variable 2.3 mph - N/A   Clear
9:50 PM 59.0 °F 53.6 °F 82% 30.04 in - East 6.9 mph - N/A   Clear
10:50 PM 57.2 °F 53.6 °F 88% 30.04 in - East 4.6 mph - N/A   Clear
11:50 PM 57.2 °F 53.6 °F 88% 30.04 in - ENE 4.6 mph - N/A   Clear